(349474) = 2008 DE3

Discovered at Kitt Peak on 2008-01-11 by Spacewatch.

Orbit

Orbit type: Main Belt

Note: WebGL enabled browser required.

epoch2024-03-31.0
epoch JD2460400.5
perihelion date2019-02-17.93397
perihelion JD2458532.43397
argument of perihelion (°)203.96128
ascending node (°)325.02796
inclination (°)9.04414
eccentricity0.0338758
perihelion distance (AU)2.9414107
Tisserand w.r.t. Jupiter3.2
ΔV w.r.t. Earth (km/sec)11.0
semimajor axis (AU)3.0445470
mean anomaly (°)346.58681
mean daily motion (°/day)0.18553240
aphelion distance (AU)3.148
period (years)5.31
P-vector [x]-0.97869732
P-vector [y]0.20442308
P-vector [z]0.01904644
Q-vector [x]-0.18448149
Q-vector [y]-0.83491102
Q-vector [z]-0.51854621
absolute magnitude16.24
phase slope0.15
uncertainty0
referenceMPEC 2024-E73
observations used228
oppositions12
arc length (days)6322
first opposition used2006
last opposition used2024
residual rms (arc-secs)0.71
perturbers coarse indicatorM-v
perturbers precise indicator003Ek
first observation date used2006-11-13.0
last observation date used2024-03-05.0
computer nameMPCLINUX
JD of orbit computation2456819.442660
perihelion JD uncertainty (days)6.3483E-04
argument of perihelion uncertainty (°)1.2539E-04
ascending node uncertainty (°)3.2233E-05
inclination uncertainty (°)7.4144E-06
eccentricity uncertainty 6.7325E-08
perihelion distance uncertainty (AU)2.0841E-07
Minimum Orbit Intersection Distances (in AU)
for orbit epoch: 2460400.5, reference: E2024-E73
Mercury2.53677
Venus2.22826
Earth1.95164
Mars1.28502
Jupiter1.85521
Saturn6.06859
Uranus15.504
Neptune26.7439

Observations

232 total observations over interval: 2006 11 13.30256 – 2024 03 05.219398
These data are available for download (format description).

Date (UT) J2000 RA J2000 Dec Magn Location Ref
2006 11 13.30256 03 28 07.46 +32 36 48.2 20.8 V G96 – Mt. Lemmon Survey MPS 392734
2006 11 13.30816 03 28 07.14 +32 36 46.9 20.7 V G96 – Mt. Lemmon Survey MPS 392734
2006 11 13.31373 03 28 06.81 +32 36 45.9 20.7 V G96 – Mt. Lemmon Survey MPS 392734
2006 11 13.31925 03 28 06.52 +32 36 45.7 20.4 V G96 – Mt. Lemmon Survey MPS 392734
2008 01 11.45544 10 08 45.79 +13 24 02.0 20.7 V 691 – Steward Observatory, Kitt Peak-Spacewatch MPS 280271
2008 01 11.47308 10 08 45.32 +13 24 02.2 20.5 V 691 – Steward Observatory, Kitt Peak-Spacewatch MPS 280271
2008 01 11.49073 10 08 44.83 +13 24 02.2 20.7 V 691 – Steward Observatory, Kitt Peak-Spacewatch MPS 280271
2008 02 02.31116 09 54 17.53 +13 44 58.4 20.4 V G96 – Mt. Lemmon Survey MPS 280271
2008 02 02.31674 09 54 17.20 +13 44 59.0 20.3 V G96 – Mt. Lemmon Survey MPS 280271
2008 02 02.32226 09 54 16.95 +13 44 59.6 20.4 V G96 – Mt. Lemmon Survey MPS 280271
2008 02 02.32785 09 54 16.66 +13 45 00.0 20.5 V G96 – Mt. Lemmon Survey MPS 280271
2008 02 24.31804 09 34 50.84 +14 18 24.4 20.1 V G96 – Mt. Lemmon Survey MPS 239675
2008 02 24.32302 09 34 50.59 +14 18 24.4 20.3 V G96 – Mt. Lemmon Survey MPS 239675
2008 02 24.32803 09 34 50.34 +14 18 25.0 20.6 V G96 – Mt. Lemmon Survey MPS 239675
2008 02 24.33300 09 34 50.01 +14 18 25.8 20.4 V G96 – Mt. Lemmon Survey MPS 239675
2008 02 25.18577 09 34 07.13 +14 19 25.8   691 – Steward Observatory, Kitt Peak-Spacewatch MPS 239675
2008 02 25.19901 09 34 06.47 +14 19 26.5   691 – Steward Observatory, Kitt Peak-Spacewatch MPS 239675
2008 02 25.21223 09 34 05.74 +14 19 27.4   691 – Steward Observatory, Kitt Peak-Spacewatch MPS 239675
2008 03 28.14222 09 16 31.83 +14 19 11.3 20.9 V G96 – Mt. Lemmon Survey MPS 280271
2008 03 28.14923 09 16 31.80 +14 19 10.7 20.8 V G96 – Mt. Lemmon Survey MPS 280271
2008 03 28.15628 09 16 31.69 +14 19 10.2 21.1 V G96 – Mt. Lemmon Survey MPS 280271
2008 03 28.16330 09 16 31.62 +14 19 09.4 20.6 V G96 – Mt. Lemmon Survey MPS 280271
2010 07 08.36728 21 31 09.75 -18 33 17.2 21.7 V 691 – Steward Observatory, Kitt Peak-Spacewatch MPS 392734
2010 07 08.38499 21 31 09.16 -18 33 18.8 22.0 V 691 – Steward Observatory, Kitt Peak-Spacewatch MPS 392734
2010 07 08.40271 21 31 08.58 -18 33 19.3 21.5 V 691 – Steward Observatory, Kitt Peak-Spacewatch MPS 392734
2011 09 27.41399 01 59 32.49 +23 58 44.0 20.7 V G96 – Mt. Lemmon Survey MPS 392734
2011 09 27.42083 01 59 32.24 +23 58 43.6 20.7 V G96 – Mt. Lemmon Survey MPS 392734
2011 09 27.42773 01 59 31.95 +23 58 43.7 20.8 V G96 – Mt. Lemmon Survey MPS 392734
2011 09 27.43456 01 59 31.70 +23 58 43.9 20.5 V G96 – Mt. Lemmon Survey MPS 392734
2011 10 21.34182 01 40 52.03 +23 22 17.6 20.4 V G96 – Mt. Lemmon Survey MPS 395093
2011 10 21.35107 01 40 51.56 +23 22 15.7 20.5 V G96 – Mt. Lemmon Survey MPS 395093
2011 10 21.36044 01 40 51.09 +23 22 13.8 20.4 V G96 – Mt. Lemmon Survey MPS 395093
2011 10 21.36966 01 40 50.55 +23 22 11.8 20.4 V G96 – Mt. Lemmon Survey MPS 395093
2012 01 27.09057 01 36 01.18 +19 46 11.6 22.4 V G96 – Mt. Lemmon Survey MPS 410218
2012 01 27.09671 01 36 01.47 +19 46 12.4 21.0 V G96 – Mt. Lemmon Survey MPS 410218
2012 01 27.10289 01 36 01.80 +19 46 13.2 21.7 V G96 – Mt. Lemmon Survey MPS 410218
2012 01 27.10905 01 36 02.12 +19 46 14.5 21.9 V G96 – Mt. Lemmon Survey MPS 410218
2012 12 12.33928 08 21 34.10 +27 04 58.1 20.7 V 691 – Steward Observatory, Kitt Peak-Spacewatch MPS 446034
2012 12 12.35726 08 21 33.61 +27 04 59.7 21.0 V 691 – Steward Observatory, Kitt Peak-Spacewatch MPS 446034
2012 12 12.37521 08 21 33.15 +27 05 00.8 21.0 V 691 – Steward Observatory, Kitt Peak-Spacewatch MPS 446034
2012 12 23.56138 08 15 21.588 +27 19 24.48 20.7 w F51 – Pan-STARRS 1, Haleakala MPS 448519
2012 12 23.57584 08 15 20.973 +27 19 25.61 20.7 w F51 – Pan-STARRS 1, Haleakala MPS 448519
2012 12 23.59029 08 15 20.361 +27 19 26.71 20.8 w F51 – Pan-STARRS 1, Haleakala MPS 448519
2013 01 03.54403 08 06 36.282 +27 32 40.33 20.2 i F51 – Pan-STARRS 1, Haleakala MPS 449587
2013 01 03.55724 08 06 35.520 +27 32 41.26 20.2 i F51 – Pan-STARRS 1, Haleakala MPS 449587
2013 01 06.24236 08 04 09.23 +27 35 13.0 20.4 V 691 – Steward Observatory, Kitt Peak-Spacewatch MPS 450904
2013 01 06.26007 08 04 08.21 +27 35 14.0 20.3 V 691 – Steward Observatory, Kitt Peak-Spacewatch MPS 450904
2013 01 06.27779 08 04 07.21 +27 35 14.8 20.5 V 691 – Steward Observatory, Kitt Peak-Spacewatch MPS 450904
2013 01 10.17550 08 00 25.79 +27 38 09.7   691 – Steward Observatory, Kitt Peak-Spacewatch MPS 450904
2013 01 10.19320 08 00 24.74 +27 38 10.4   691 – Steward Observatory, Kitt Peak-Spacewatch MPS 450904
2013 01 10.21089 08 00 23.72 +27 38 11.1   691 – Steward Observatory, Kitt Peak-Spacewatch MPS 450904
2013 01 19.18051 07 51 35.02 +27 40 29.9 20.8 V 691 – Steward Observatory, Kitt Peak-Spacewatch MPS 453188
2013 01 19.19821 07 51 33.95 +27 40 29.7 20.8 V 691 – Steward Observatory, Kitt Peak-Spacewatch MPS 453188
2013 01 19.21592 07 51 32.89 +27 40 29.7 20.9 V 691 – Steward Observatory, Kitt Peak-Spacewatch MPS 453188
2013 01 23.30159 07 47 33.97 +27 39 11.8 19.1 V G96 – Mt. Lemmon Survey MPS 453188
2013 01 23.30443 07 47 33.64 +27 39 11.7 20.5 V G96 – Mt. Lemmon Survey MPS 453188
2013 01 23.30729 07 47 33.46 +27 39 11.0 20.1 V G96 – Mt. Lemmon Survey MPS 453188
2013 01 23.31016 07 47 33.32 +27 39 10.8 20.2 V G96 – Mt. Lemmon Survey MPS 453188
2013 02 17.11546 07 28 21.23 +26 59 16.3 20.8 V 691 – Steward Observatory, Kitt Peak-Spacewatch MPS 457276
2013 02 17.13917 07 28 20.68 +26 59 13.4 20.8 V 691 – Steward Observatory, Kitt Peak-Spacewatch MPS 457276
2013 02 17.15562 07 28 20.12 +26 59 10.8 20.9 V 691 – Steward Observatory, Kitt Peak-Spacewatch MPS 457276
2014 05 19.28635 12 47 38.938 -17 34 23.97 20.8 w F51 – Pan-STARRS 1, Haleakala MPS 516364
2014 05 19.29758 12 47 38.718 -17 34 21.63 20.7 w F51 – Pan-STARRS 1, Haleakala MPS 516364
2014 05 19.30881 12 47 38.506 -17 34 19.12 20.9 w F51 – Pan-STARRS 1, Haleakala MPS 516364
2014 05 19.32002 12 47 38.285 -17 34 16.60 20.9 w F51 – Pan-STARRS 1, Haleakala MPS 516364
2015 06 17.44113 19 46 23.538 -29 49 19.87 20.9 w F51 – Pan-STARRS 1, Haleakala MPS 612501
2015 06 17.46109 19 46 22.706 -29 49 21.39 21.0 w F51 – Pan-STARRS 1, Haleakala MPS 612501
2015 06 17.47106 19 46 22.296 -29 49 22.23 20.8 w F51 – Pan-STARRS 1, Haleakala MPS 612501
2015 06 19.47426 19 44 59.343 -29 51 48.86 21.0 w F51 – Pan-STARRS 1, Haleakala MPS 614075
2015 06 19.48425 19 44 58.896 -29 51 49.57 20.8 w F51 – Pan-STARRS 1, Haleakala MPS 614075
2015 06 19.49426 19 44 58.465 -29 51 50.31 20.8 w F51 – Pan-STARRS 1, Haleakala MPS 614075
2015 06 19.50424 19 44 58.010 -29 51 51.02 20.8 w F51 – Pan-STARRS 1, Haleakala MPS 614075
2015 07 24.38406 19 14 16.977 -29 54 13.91 20.5 i F51 – Pan-STARRS 1, Haleakala MPS 618434
2015 07 24.39394 19 14 16.456 -29 54 12.78 20.7 i F51 – Pan-STARRS 1, Haleakala MPS 618434
2015 07 24.40363 19 14 15.927 -29 54 12.19 20.6 i F51 – Pan-STARRS 1, Haleakala MPS 618434
2015 07 24.41333 19 14 15.406 -29 54 11.27 20.5 i F51 – Pan-STARRS 1, Haleakala MPS 618434
2016 09 12.51805 00 21 25.086 +11 07 52.43 21.0 w F51 – Pan-STARRS 1, Haleakala MPS 729780
2016 09 12.53142 00 21 24.473 +11 07 51.20 20.9 w F51 – Pan-STARRS 1, Haleakala MPS 729780
2016 09 12.54493 00 21 23.856 +11 07 49.77 20.8 w F51 – Pan-STARRS 1, Haleakala MPS 729780
2016 09 12.55845 00 21 23.231 +11 07 48.50 20.7 w F51 – Pan-STARRS 1, Haleakala MPS 729780
2016 09 22.36492 00 13 43.79 +10 46 02.6 20.7 V G96 – Mt. Lemmon Survey MPS 730641
2016 09 22.36925 00 13 43.58 +10 46 01.6 21.1 V G96 – Mt. Lemmon Survey MPS 730641
2016 09 22.37351 00 13 43.35 +10 46 01.1 20.3 V G96 – Mt. Lemmon Survey MPS 730641
2016 09 22.37781 00 13 43.12 +10 45 59.5 20.6 V G96 – Mt. Lemmon Survey MPS 730641
2016 09 29.98673 00 07 31.74 +10 22 26.4 20.1   J43 – Oukaimeden Observatory, Marrakech MPS 732156
2016 09 29.99852 00 07 31.13 +10 22 24.5 20.2   J43 – Oukaimeden Observatory, Marrakech MPS 732156
2016 09 30.01030 00 07 30.54 +10 22 21.7 20.4   J43 – Oukaimeden Observatory, Marrakech MPS 732156
2016 09 30.02213 00 07 29.98 +10 22 19.3 20.6   J43 – Oukaimeden Observatory, Marrakech MPS 732156
2016 10 06.41944 00 02 25.027 +09 59 26.38 20.6 w F51 – Pan-STARRS 1, Haleakala MPS 734089
